Time,TemperatureF,DewpointF,PressureIn,WindDirection,WindDirectionDegrees,WindSpeedMPH,WindSpeedGustMPH,Humidity,HourlyPrecipIn,Conditions,Clouds,dailyrainin,SolarRadiationWatts/m^2,SoftwareType,DateUTC
2013-07-13 00:02:00,73.0,70.0,-100.00,East,100,1.0,6.0,91,0.00,,,1.91,0.000000,,2013-07-13 04:02:00,
2013-07-13 00:32:00,73.0,71.0,-100.00,NE,34,2.0,4.0,93,0.00,,,1.91,0.000000,,2013-07-13 04:32:00,
2013-07-13 00:44:00,73.0,71.0,-100.00,NE,34,2.0,4.0,93,0.00,,,1.91,0.000000,,2013-07-13 04:44:00,
2013-07-13 00:52:00,73.0,71.0,-100.00,NE,34,2.0,4.0,93,0.00,,,1.91,0.000000,,2013-07-13 04:52:00,
2013-07-13 01:01:00,73.0,71.0,-100.00,NE,34,2.0,4.0,93,0.00,,,1.91,0.000000,,2013-07-13 05:01:00,
2013-07-13 01:42:00,73.0,71.0,-100.00,NE,41,2.0,5.0,93,0.00,,,1.91,0.000000,,2013-07-13 05:42:00,
2013-07-13 01:52:00,73.0,71.0,-100.00,NE,41,2.0,5.0,93,0.00,,,1.91,0.000000,,2013-07-13 05:52:00,
2013-07-13 02:02:00,73.0,71.0,-100.00,NE,41,2.0,5.0,93,0.00,,,1.91,0.000000,,2013-07-13 06:02:00,
2013-07-13 02:43:00,72.0,70.0,-100.00,ENE,60,2.0,5.0,93,0.00,,,1.91,0.000000,,2013-07-13 06:43:00,
2013-07-13 02:52:00,72.0,70.0,-100.00,ENE,60,2.0,5.0,93,0.00,,,1.91,0.000000,,2013-07-13 06:52:00,
2013-07-13 03:02:00,72.0,70.0,-100.00,ENE,60,2.0,5.0,93,0.00,,,1.91,0.000000,,2013-07-13 07:02:00,
2013-07-13 03:33:00,72.0,70.0,-100.00,NE,51,1.0,4.0,94,0.00,,,1.91,0.000000,,2013-07-13 07:33:00,
2013-07-13 03:44:00,72.0,70.0,-100.00,NE,51,1.0,4.0,94,0.00,,,1.91,0.000000,,2013-07-13 07:44:00,
2013-07-13 03:53:00,72.0,70.0,-100.00,NE,51,1.0,4.0,94,0.00,,,1.91,0.000000,,2013-07-13 07:53:00,
2013-07-13 04:02:00,72.0,70.0,-100.00,NE,51,1.0,4.0,94,0.00,,,1.91,0.000000,,2013-07-13 08:02:00,
2013-07-13 04:33:00,72.0,70.0,-100.00,NE,37,2.0,4.0,94,0.00,,,1.91,0.000000,,2013-07-13 08:33:00,
2013-07-13 04:43:00,72.0,70.0,-100.00,NE,37,2.0,4.0,94,0.00,,,1.91,0.000000,,2013-07-13 08:43:00,
2013-07-13 04:52:00,72.0,70.0,-100.00,NE,37,2.0,4.0,94,0.00,,,1.91,0.000000,,2013-07-13 08:52:00,
2013-07-13 05:02:00,72.0,70.0,-100.00,NE,37,2.0,4.0,94,0.00,,,1.91,0.000000,,2013-07-13 09:02:00,
2013-07-13 05:33:00,75.0,73.0,-100.00,SSE,147,6.0,14.0,94,0.31,,,2.22,0.000000,,2013-07-13 09:33:00,
2013-07-13 05:43:00,75.0,73.0,-100.00,SSE,147,6.0,14.0,94,0.31,,,2.22,0.000000,,2013-07-13 09:43:00,
2013-07-13 05:53:00,75.0,73.0,-100.00,SSE,147,6.0,14.0,94,0.31,,,2.22,0.000000,,2013-07-13 09:53:00,
2013-07-13 06:01:00,75.0,73.0,-100.00,SSE,147,6.0,14.0,94,0.31,,,2.22,0.000000,,2013-07-13 10:01:00,
2013-07-13 06:32:00,75.0,73.0,-100.00,SE,140,4.0,8.0,93,0.01,,,2.23,0.000000,,2013-07-13 10:32:00,
2013-07-13 06:43:00,75.0,73.0,-100.00,SE,140,4.0,8.0,93,0.01,,,2.23,0.000000,,2013-07-13 10:43:00,
2013-07-13 06:52:00,75.0,73.0,-100.00,SE,140,4.0,8.0,93,0.01,,,2.23,0.000000,,2013-07-13 10:52:00,
2013-07-13 07:02:00,75.0,73.0,-100.00,SE,140,4.0,8.0,93,0.01,,,2.23,0.000000,,2013-07-13 11:02:00,
2013-07-13 07:32:00,75.0,73.0,-100.00,SSE,151,4.0,16.0,92,0.01,,,2.14,64.000000,,2013-07-13 11:32:00,
2013-07-13 07:43:00,75.0,73.0,-100.00,SSE,151,4.0,16.0,92,0.01,,,2.14,64.000000,,2013-07-13 11:43:00,
2013-07-13 07:52:00,75.0,73.0,-100.00,SSE,151,4.0,16.0,92,0.01,,,2.14,64.000000,,2013-07-13 11:52:00,
2013-07-13 08:02:00,75.0,73.0,-100.00,SSE,151,4.0,16.0,92,0.01,,,2.14,64.000000,,2013-07-13 12:02:00,
2013-07-13 08:32:00,78.0,74.0,-100.00,SSE,167,6.0,10.0,87,0.00,,,2.13,256.000000,,2013-07-13 12:32:00,
2013-07-13 08:43:00,78.0,74.0,-100.00,SSE,167,6.0,10.0,87,0.00,,,2.13,256.000000,,2013-07-13 12:43:00,
2013-07-13 08:52:00,78.0,74.0,-100.00,SSE,167,6.0,10.0,87,0.00,,,2.13,256.000000,,2013-07-13 12:52:00,
2013-07-13 09:01:00,78.0,74.0,-100.00,SSE,167,6.0,10.0,87,0.00,,,2.13,256.000000,,2013-07-13 13:01:00,
2013-07-13 09:43:00,77.0,73.0,-100.00,South,182,5.0,15.0,87,0.06,,,2.18,199.000000,,2013-07-13 13:43:00,
2013-07-13 09:53:00,77.0,73.0,-100.00,South,182,5.0,15.0,87,0.06,,,2.18,199.000000,,2013-07-13 13:53:00,
2013-07-13 10:02:00,77.0,73.0,-100.00,South,182,5.0,15.0,87,0.06,,,2.18,199.000000,,2013-07-13 14:02:00,
2013-07-13 10:33:00,82.0,72.0,-100.00,SE,140,8.0,13.0,73,0.00,,,2.18,563.000000,,2013-07-13 14:33:00,
2013-07-13 10:44:00,82.0,72.0,-100.00,SE,140,8.0,13.0,73,0.00,,,2.18,563.000000,,2013-07-13 14:44:00,
2013-07-13 10:53:00,82.0,72.0,-100.00,SE,140,8.0,13.0,73,0.00,,,2.18,563.000000,,2013-07-13 14:53:00,
2013-07-13 11:02:00,82.0,72.0,-100.00,SE,140,8.0,13.0,73,0.00,,,2.18,563.000000,,2013-07-13 15:02:00,
2013-07-13 11:33:00,82.0,72.0,-100.00,SE,128,13.0,21.0,71,0.00,,,1.97,801.000000,,2013-07-13 15:33:00,
2013-07-13 11:43:00,82.0,72.0,-100.00,SE,128,13.0,21.0,71,0.00,,,1.97,801.000000,,2013-07-13 15:43:00,
2013-07-13 11:53:00,82.0,72.0,-100.00,SE,128,13.0,21.0,71,0.00,,,1.97,801.000000,,2013-07-13 15:53:00,
2013-07-13 12:02:00,82.0,72.0,-100.00,SE,128,13.0,21.0,71,0.00,,,1.97,801.000000,,2013-07-13 16:02:00,
2013-07-13 12:33:00,84.0,73.0,-100.00,SE,146,13.0,21.0,70,0.00,,,1.52,914.000000,,2013-07-13 16:33:00,
2013-07-13 12:43:00,84.0,73.0,-100.00,SE,146,13.0,21.0,70,0.00,,,1.52,914.000000,,2013-07-13 16:43:00,
2013-07-13 12:53:00,84.0,73.0,-100.00,SE,146,13.0,21.0,70,0.00,,,1.52,914.000000,,2013-07-13 16:53:00,
2013-07-13 13:01:00,84.0,73.0,-100.00,SE,146,13.0,21.0,70,0.00,,,1.52,914.000000,,2013-07-13 17:01:00,
2013-07-13 13:33:00,85.0,72.0,-100.00,SSE,149,12.0,24.0,66,0.00,,,1.48,1040.000000,,2013-07-13 17:33:00,
2013-07-13 13:43:00,85.0,72.0,-100.00,SSE,149,12.0,24.0,66,0.00,,,1.48,1040.000000,,2013-07-13 17:43:00,
2013-07-13 13:52:00,85.0,72.0,-100.00,SSE,149,12.0,24.0,66,0.00,,,1.48,1040.000000,,2013-07-13 17:52:00,
2013-07-13 14:02:00,85.0,72.0,-100.00,SSE,149,12.0,24.0,66,0.00,,,1.48,1040.000000,,2013-07-13 18:02:00,
2013-07-13 14:32:00,85.0,72.0,-100.00,SE,137,11.0,22.0,66,0.00,,,0.94,1011.000000,,2013-07-13 18:32:00,
2013-07-13 14:44:00,85.0,72.0,-100.00,SE,137,11.0,22.0,66,0.00,,,0.94,1011.000000,,2013-07-13 18:44:00,
2013-07-13 14:53:00,85.0,72.0,-100.00,SE,137,11.0,22.0,66,0.00,,,0.94,1011.000000,,2013-07-13 18:53:00,
2013-07-13 15:02:00,85.0,72.0,-100.00,SE,137,11.0,22.0,66,0.00,,,0.94,1011.000000,,2013-07-13 19:02:00,
2013-07-13 15:32:00,85.0,72.0,-100.00,SE,144,13.0,27.0,66,0.00,,,0.46,939.000000,,2013-07-13 19:32:00,
2013-07-13 15:44:00,85.0,72.0,-100.00,SE,144,13.0,27.0,66,0.00,,,0.46,939.000000,,2013-07-13 19:44:00,
2013-07-13 15:52:00,85.0,72.0,-100.00,SE,144,13.0,27.0,66,0.00,,,0.46,939.000000,,2013-07-13 19:52:00,
2013-07-13 16:01:00,85.0,72.0,-100.00,SE,144,13.0,27.0,66,0.00,,,0.46,939.000000,,2013-07-13 20:01:00,
2013-07-13 16:33:00,83.0,71.0,-100.00,SE,132,13.0,23.0,68,0.00,,,0.39,791.000000,,2013-07-13 20:33:00,
2013-07-13 16:43:00,83.0,71.0,-100.00,SE,132,13.0,23.0,68,0.00,,,0.39,791.000000,,2013-07-13 20:43:00,
2013-07-13 16:53:00,83.0,71.0,-100.00,SE,132,13.0,23.0,68,0.00,,,0.39,791.000000,,2013-07-13 20:53:00,
2013-07-13 17:02:00,83.0,71.0,-100.00,SE,132,13.0,23.0,68,0.00,,,0.39,791.000000,,2013-07-13 21:02:00,
2013-07-13 17:32:00,81.0,73.0,-100.00,SE,139,10.0,25.0,78,0.01,,,0.40,458.000000,,2013-07-13 21:32:00,
2013-07-13 17:43:00,81.0,73.0,-100.00,SE,139,10.0,25.0,78,0.01,,,0.40,458.000000,,2013-07-13 21:43:00,
2013-07-13 17:53:00,81.0,73.0,-100.00,SE,139,10.0,25.0,78,0.01,,,0.40,458.000000,,2013-07-13 21:53:00,
2013-07-13 18:01:00,81.0,73.0,-100.00,SE,139,10.0,25.0,78,0.01,,,0.40,458.000000,,2013-07-13 22:01:00,
2013-07-13 18:32:00,83.0,73.0,-100.00,SE,140,10.0,20.0,71,0.00,,,0.40,541.000000,,2013-07-13 22:32:00,
2013-07-13 18:43:00,83.0,73.0,-100.00,SE,140,10.0,20.0,71,0.00,,,0.40,541.000000,,2013-07-13 22:43:00,
2013-07-13 18:53:00,83.0,73.0,-100.00,SE,140,10.0,20.0,71,0.00,,,0.40,541.000000,,2013-07-13 22:53:00,
2013-07-13 19:02:00,83.0,73.0,-100.00,SE,140,10.0,20.0,71,0.00,,,0.40,541.000000,,2013-07-13 23:02:00,
2013-07-13 19:33:00,75.0,72.0,-100.00,SSE,155,7.0,23.0,89,0.06,,,0.46,188.000000,,2013-07-13 23:33:00,
2013-07-13 19:42:00,75.0,72.0,-100.00,SSE,155,7.0,23.0,89,0.06,,,0.46,188.000000,,2013-07-13 23:42:00,
2013-07-13 19:53:00,75.0,72.0,-100.00,SSE,155,7.0,23.0,89,0.06,,,0.46,188.000000,,2013-07-13 23:53:00,
2013-07-13 20:01:00,75.0,72.0,-100.00,SSE,155,7.0,23.0,89,0.06,,,0.46,188.000000,,2013-07-14 00:01:00,
2013-07-13 20:33:00,76.0,72.0,-100.00,SE,129,5.0,11.0,86,0.00,,,0.46,61.000000,,2013-07-14 00:33:00,
2013-07-13 20:42:00,76.0,72.0,-100.00,SE,129,5.0,11.0,86,0.00,,,0.46,61.000000,,2013-07-14 00:42:00,
2013-07-13 20:53:00,76.0,72.0,-100.00,SE,129,5.0,11.0,86,0.00,,,0.46,61.000000,,2013-07-14 00:53:00,
2013-07-13 21:02:00,76.0,72.0,-100.00,SE,129,5.0,11.0,86,0.00,,,0.46,61.000000,,2013-07-14 01:02:00,
2013-07-13 21:32:00,77.0,71.0,-100.00,SE,139,7.0,10.0,83,0.00,,,0.46,4.000000,,2013-07-14 01:32:00,
2013-07-13 21:43:00,77.0,71.0,-100.00,SE,139,7.0,10.0,83,0.00,,,0.46,4.000000,,2013-07-14 01:43:00,
2013-07-13 21:52:00,77.0,71.0,-100.00,SE,139,7.0,10.0,83,0.00,,,0.46,4.000000,,2013-07-14 01:52:00,
2013-07-13 22:02:00,77.0,71.0,-100.00,SE,139,7.0,10.0,83,0.00,,,0.46,4.000000,,2013-07-14 02:02:00,
2013-07-13 22:32:00,77.0,71.0,-100.00,SE,128,5.0,9.0,81,0.00,,,0.46,0.000000,,2013-07-14 02:32:00,
2013-07-13 22:43:00,77.0,71.0,-100.00,SE,128,5.0,9.0,81,0.00,,,0.46,0.000000,,2013-07-14 02:43:00,
2013-07-13 22:53:00,77.0,71.0,-100.00,SE,128,5.0,9.0,81,0.00,,,0.46,0.000000,,2013-07-14 02:53:00,
2013-07-13 23:02:00,77.0,71.0,-100.00,SE,128,5.0,9.0,81,0.00,,,0.46,0.000000,,2013-07-14 03:02:00,
2013-07-13 23:32:00,78.0,72.0,-100.00,SE,131,5.0,10.0,81,0.00,,,0.46,0.000000,,2013-07-14 03:32:00,
2013-07-13 23:43:00,78.0,72.0,-100.00,SE,131,5.0,10.0,81,0.00,,,0.46,0.000000,,2013-07-14 03:43:00,
2013-07-13 23:53:00,78.0,72.0,-100.00,SE,131,5.0,10.0,81,0.00,,,0.46,0.000000,,2013-07-14 03:53:00,